Weather History for Alliance, NE

Change the Weather History Date:

Thursday, February 28, 2013

  Actual Average Record
Temperature  
Mean Temperature 29 °F 31 °F  
Max Temperature 45 °F 46 °F 75 °F (2006)
Min Temperature 13 °F 16 °F -23 °F (1913)
Degree Days  
Heating Degree Days 36 34  
Month to date heating degree days 1044 1060  
Since 1 July heating degree days 5113 5404  
Cooling Degree Days 0 0  
Month to date cooling degree days 0 0  
Year to date cooling degree days 0 0  
Moisture  
Dew Point 15 °F    
Average Humidity 60    
Maximum Humidity 88    
Minimum Humidity 31    
Precipitation  
Precipitation 0.00 in 0.01 in 0.33 in (1958)
Month to date precipitation T 0.38  
Year to date precipitation 0.22 0.56  
Sea Level Pressure  
Sea Level Pressure 30.23 in    
Wind  
Wind Speed 11 mph (WNW)    
Max Wind Speed 25 mph    
Max Gust Speed 32 mph    
Visibility 10 miles    
Events      
T = Trace of Precipitation, MM = Missing Value Source: NWS Daily Summary

Daily Weather History Graph

Daily Weather History Graph

Search for Another Location

Airport:

Trip Planner

Search our weather history database for the weather conditions in past years. The results will help you decide how hot, cold, wet, or windy it might be!

Date:

Astronomy

Feb. 28, 2013 Rise Set
Actual Time 6:27 AM MST 5:40 PM MST
Civil Twilight 5:59 AM MST 6:08 PM MST
Nautical Twilight 5:27 AM MST 6:40 PM MST
Astronomical Twilight 4:54 AM MST 7:13 PM MST
Moon 9:14 PM MST (2/28) 7:34 AM MST (2/28)
Length of Visible Light 12h 09m
Length of Day
11h 13m
Waning Gibbous, 90% of the Moon is Illuminated
Feb 28
Waning Gibbous
Mar 4
Last Quarter
Mar 11
New
Mar 19
First Quarter
Mar 27
Full

Hourly Weather History & Observations

Time (MST) Temp. Windchill Dew Point Humidity Pressure Visibility Wind Dir Wind Speed Gust Speed Precip Events Conditions
12:53 AM 16.0 °F 4.4 °F 12.0 °F 84% 30.27 in 10.0 mi West 9.2 mph - N/A   Clear
1:53 AM 15.8 °F 6.1 °F 12.2 °F 86% 30.17 in 10.0 mi West 6.9 mph - N/A   Clear
2:53 AM 16.0 °F 10.4 °F 10.9 °F 81% 30.25 in 10.0 mi West 3.5 mph - N/A   Clear
3:53 AM 15.1 °F 6.4 °F 10.0 °F 80% 30.26 in 10.0 mi West 5.8 mph - N/A   Clear
4:53 AM 15.8 °F 8.6 °F 10.4 °F 79% 30.16 in 10.0 mi West 4.6 mph - N/A   Clear
5:53 AM 14.0 °F 2.9 °F 9.0 °F 80% 30.28 in 10.0 mi West 8.1 mph - N/A   Clear
6:53 AM 15.8 °F 4.2 °F 10.4 °F 79% 30.18 in 10.0 mi West 9.2 mph - N/A   Clear
7:53 AM 24.1 °F 13.7 °F 16.0 °F 71% 30.28 in 10.0 mi West 10.4 mph - N/A   Mostly Cloudy
8:53 AM 28.9 °F 18.6 °F 16.0 °F 58% 30.28 in 10.0 mi WNW 12.7 mph - N/A   Overcast
9:53 AM 33.1 °F 23.9 °F 15.1 °F 48% 30.27 in 10.0 mi WNW 12.7 mph - N/A   Mostly Cloudy
10:53 AM 36.0 °F 27.5 °F 15.1 °F 43% 30.25 in 10.0 mi NW 12.7 mph - N/A   Overcast
11:53 AM 41.0 °F 35.2 °F 17.1 °F 38% 30.24 in 10.0 mi NNW 9.2 mph - N/A   Scattered Clouds
12:53 PM 42.8 °F 35.4 °F 17.6 °F 36% 30.12 in 10.0 mi NNW 15.0 mph - N/A   Mostly Cloudy
1:53 PM 45.0 °F 37.1 °F 15.1 °F 30% 30.19 in 10.0 mi NNW 19.6 mph 27.6 mph N/A   Mostly Cloudy
2:53 PM 44.1 °F 35.4 °F 15.1 °F 31% 30.20 in 10.0 mi NW 21.9 mph 28.8 mph N/A   Mostly Cloudy
3:53 PM 42.1 °F 33.6 °F 15.1 °F 34% 30.20 in 10.0 mi NW 18.4 mph - N/A   Clear
4:53 PM 39.0 °F 30.3 °F 15.1 °F 38% 30.22 in 10.0 mi NNW 16.1 mph - N/A   Mostly Cloudy
5:53 PM 34.0 °F 28.0 °F 17.1 °F 50% 30.25 in 10.0 mi NNW 6.9 mph - N/A   Partly Cloudy
6:53 PM 33.8 °F 27.0 °F 17.6 °F 52% 30.14 in 10.0 mi NNW 8.1 mph - N/A   Mostly Cloudy
7:53 PM 30.9 °F 23.5 °F 19.0 °F 61% 30.25 in 10.0 mi WNW 8.1 mph - N/A   Overcast
8:53 PM 30.9 °F 24.3 °F 19.9 °F 64% 30.24 in 10.0 mi WNW 6.9 mph - N/A   Overcast
9:53 PM 30.0 °F 21.7 °F 24.1 °F 79% 30.25 in 10.0 mi North 9.2 mph - N/A   Partly Cloudy
10:53 PM 28.0 °F 18.6 °F 21.9 °F 78% 30.25 in 10.0 mi NW 10.4 mph - N/A   Clear
11:53 PM 24.1 °F 14.4 °F 19.9 °F 84% 30.26 in 10.0 mi WNW 9.2 mph - N/A   Clear